(253957) = 2004 DP38

Discovered at Haleakala on 2004-02-20 by NEAT.

Orbit

Orbit type: Main Belt

Note: WebGL enabled browser required.

epoch2023-09-13.0
epoch JD2460200.5
perihelion date2021-11-18.60818
perihelion JD2459537.10818
argument of perihelion (°)155.56752
ascending node (°)32.20794
inclination (°)3.90803
eccentricity0.0699637
perihelion distance (AU)2.4841936
Tisserand w.r.t. Jupiter3.4
ΔV w.r.t. Earth (km/sec)9.9
semimajor axis (AU)2.6710715
mean anomaly (°)149.77719
mean daily motion (°/day)0.22577490
aphelion distance (AU)2.858
period (years)4.37
P-vector [x]-0.99029325
P-vector [y]-0.13608741
P-vector [z]-0.02827530
Q-vector [x]0.13416288
Q-vector [y]-0.88272036
Q-vector [z]-0.45033885
absolute magnitude16.58
phase slope0.15
uncertainty0
referenceMPEC 2023-Y06
observations used454
oppositions15
arc length (days)8562
first opposition used2000
last opposition used2023
residual rms (arc-secs)0.64
perturbers coarse indicatorM-v
perturbers precise indicator003Ek
first observation date used2000-04-29.0
last observation date used2023-10-08.0
computer nameMPCLINUX
JD of orbit computation2456937.326599
perihelion JD uncertainty (days)9.0655E-05
argument of perihelion uncertainty (°)5.0329E-05
ascending node uncertainty (°)4.5604E-05
inclination uncertainty (°)3.4662E-06
eccentricity uncertainty 3.9179E-08
perihelion distance uncertainty (AU)9.7881E-08
Minimum Orbit Intersection Distances (in AU)
for orbit epoch: 2460200.5, reference: E2023-Y06
Mercury2.0609
Venus1.76393
Earth1.484
Mars0.83143
Jupiter2.09371
Saturn6.33567
Uranus15.9479
Neptune26.9896

Observations

467 total observations over interval: 2000 04 29.28090 – 2023 10 08.280648
These data are available for download (format description).

Date (UT) J2000 RA J2000 Dec Magn Location Ref
2000 04 29.28090 13 58 02.98 -12 20 51.8 19.1   704 – Lincoln Laboratory ETS, New Mexico MPS 213122
2000 04 29.29307 13 58 02.26 -12 20 49.0 19.2   704 – Lincoln Laboratory ETS, New Mexico MPS 213122
2000 04 29.31743 13 58 00.88 -12 20 44.1 19.5   704 – Lincoln Laboratory ETS, New Mexico MPS 213122
2000 04 29.32960 13 58 00.30 -12 20 42.7 19.7   704 – Lincoln Laboratory ETS, New Mexico MPS 213122
2001 09 12.24095 21 32 07.60 -20 02 55.5 20.1 R 695 – Kitt Peak MPS 185438
2001 09 12.28804 21 32 05.80 -20 02 58.4   695 – Kitt Peak MPS 185438
2004 02 20.51236 11 29 15.15 +08 36 18.5 20.9   608 – Haleakala-AMOS MPS 100277
2004 02 20.52270 11 29 14.68 +08 36 20.8 21.4   608 – Haleakala-AMOS MPS 100277
2004 02 20.53339 11 29 14.24 +08 36 23.9 20.7   608 – Haleakala-AMOS MPS 100277
2004 02 23.33808 11 27 06.25 +08 48 57.1 19.5   704 – Lincoln Laboratory ETS, New Mexico MPS 100277
2004 02 23.35049 11 27 05.63 +08 49 00.2 19.6   704 – Lincoln Laboratory ETS, New Mexico MPS 100277
2004 02 23.36285 11 27 05.03 +08 49 03.5 19.9   704 – Lincoln Laboratory ETS, New Mexico MPS 100277
2004 02 23.37513 11 27 04.46 +08 49 07.0 19.4   704 – Lincoln Laboratory ETS, New Mexico MPS 100277
2004 02 23.39327 11 27 03.56 +08 49 12.1 19.7   704 – Lincoln Laboratory ETS, New Mexico MPS 100277
2004 03 18.34410 11 06 14.20 +10 30 59.0 19.6 V 691 – Steward Observatory, Kitt Peak-Spacewatch MPS 103181
2004 03 18.37444 11 06 12.61 +10 31 04.8 19.6 V 691 – Steward Observatory, Kitt Peak-Spacewatch MPS 103181
2004 03 18.40493 11 06 11.01 +10 31 10.9 19.6 V 691 – Steward Observatory, Kitt Peak-Spacewatch MPS 103181
2004 03 19.28533 11 05 26.90 +10 34 03.7 19.2   704 – Lincoln Laboratory ETS, New Mexico MPS 103181
2004 03 19.30699 11 05 25.84 +10 34 07.2 20.2   704 – Lincoln Laboratory ETS, New Mexico MPS 103181
2004 03 19.31783 11 05 25.26 +10 34 09.9 20.0   704 – Lincoln Laboratory ETS, New Mexico MPS 103181
2004 03 28.11132 10 58 41.55 +10 56 52.3 21.0 V 691 – Steward Observatory, Kitt Peak-Spacewatch MPS 135605
2004 03 28.13996 10 58 40.32 +10 56 55.7 20.9 V 691 – Steward Observatory, Kitt Peak-Spacewatch MPS 135605
2004 03 28.17000 10 58 39.02 +10 56 59.0 21.1 V 691 – Steward Observatory, Kitt Peak-Spacewatch MPS 135605
2006 10 16.15855 01 20 18.18 +07 16 08.5 20.4 V 691 – Steward Observatory, Kitt Peak-Spacewatch MPS 185438
2006 10 16.17593 01 20 17.28 +07 16 04.5 20.5 V 691 – Steward Observatory, Kitt Peak-Spacewatch MPS 185438
2006 10 16.18976 01 20 16.46 +07 16 01.2   291 – LPL/Spacewatch II MPS 185438
2006 10 16.19331 01 20 16.28 +07 16 00.3 20.5 V 691 – Steward Observatory, Kitt Peak-Spacewatch MPS 185438
2006 10 16.19352 01 20 16.27 +07 16 00.3   291 – LPL/Spacewatch II MPS 185438
2006 10 16.19994 01 20 15.92 +07 15 58.9   291 – LPL/Spacewatch II MPS 185438
2006 10 27.23681 01 10 43.57 +06 33 36.5 20.8 V G96 – Mt. Lemmon Survey MPS 185438
2006 10 27.24634 01 10 43.06 +06 33 35.1 20.1 V G96 – Mt. Lemmon Survey MPS 185438
2006 10 27.25593 01 10 42.60 +06 33 32.7 20.4 V G96 – Mt. Lemmon Survey MPS 185438
2006 10 27.26534 01 10 42.13 +06 33 30.3 20.4 V G96 – Mt. Lemmon Survey MPS 185438
2006 10 28.12824 01 10 00.21 +06 30 27.4 20.5 V 691 – Steward Observatory, Kitt Peak-Spacewatch MPS 185438
2006 10 28.14564 01 09 59.36 +06 30 23.9 20.8 V 691 – Steward Observatory, Kitt Peak-Spacewatch MPS 185438
2006 10 28.16304 01 09 58.48 +06 30 20.6 20.2 V 691 – Steward Observatory, Kitt Peak-Spacewatch MPS 185438
2008 01 01.36288 08 39 32.84 +24 37 56.5 20.2 V 691 – Steward Observatory, Kitt Peak-Spacewatch MPS 232610
2008 01 01.38054 08 39 32.08 +24 38 00.7 20.1 V 691 – Steward Observatory, Kitt Peak-Spacewatch MPS 232610
2008 01 01.40168 08 39 31.11 +24 38 05.7 19.9 V 691 – Steward Observatory, Kitt Peak-Spacewatch MPS 232610
2008 01 18.24930 08 24 47.82 +25 45 36.8 19.9 V 691 – Steward Observatory, Kitt Peak-Spacewatch MPS 234236
2008 01 18.26745 08 24 46.69 +25 45 41.0 19.7 V 691 – Steward Observatory, Kitt Peak-Spacewatch MPS 234236
2008 01 18.28560 08 24 45.59 +25 45 45.1 19.8 V 691 – Steward Observatory, Kitt Peak-Spacewatch MPS 234236
2008 02 09.26163 08 03 09.00 +26 42 27.9 19.8 V G96 – Mt. Lemmon Survey MPS 237511
2008 02 09.26822 08 03 08.60 +26 42 28.1 19.8 V G96 – Mt. Lemmon Survey MPS 237511
2008 02 09.27495 08 03 08.31 +26 42 28.5 19.7 V G96 – Mt. Lemmon Survey MPS 237511
2008 02 09.28160 08 03 07.92 +26 42 29.3 20.0 V G96 – Mt. Lemmon Survey MPS 237511
2008 02 09.32122 08 03 05.79 +26 42 32.4 20.0 V G96 – Mt. Lemmon Survey MPS 237511
2008 02 09.32890 08 03 05.40 +26 42 32.9 19.9 V G96 – Mt. Lemmon Survey MPS 237511
2008 02 09.33661 08 03 04.96 +26 42 33.4 19.9 V G96 – Mt. Lemmon Survey MPS 237511
2008 02 09.34431 08 03 04.57 +26 42 34.0 20.0 V G96 – Mt. Lemmon Survey MPS 237511
2008 02 10.19764 08 02 21.30 +26 43 34.4 20.1 V G96 – Mt. Lemmon Survey MPS 237511
2008 02 10.20677 08 02 20.83 +26 43 35.2 20.2 V G96 – Mt. Lemmon Survey MPS 237511
2008 02 10.21588 08 02 20.36 +26 43 35.7 20.1 V G96 – Mt. Lemmon Survey MPS 237511
2008 02 10.22501 08 02 19.86 +26 43 36.6 20.2 V G96 – Mt. Lemmon Survey MPS 237511
2008 02 13.15819 07 59 57.68 +26 46 18.9 20.0   704 – Lincoln Laboratory ETS, New Mexico MPS 237511
2008 02 13.17001 07 59 57.06 +26 46 21.1 20.4   704 – Lincoln Laboratory ETS, New Mexico MPS 237511
2008 02 13.18185 07 59 56.49 +26 46 19.1 20.0   704 – Lincoln Laboratory ETS, New Mexico MPS 237511
2008 02 13.19368 07 59 55.93 +26 46 21.0 20.5   704 – Lincoln Laboratory ETS, New Mexico MPS 237511
2008 02 13.20554 07 59 55.36 +26 46 21.1 20.7   704 – Lincoln Laboratory ETS, New Mexico MPS 237511
2010 09 11.26131 23 24 41.22 -08 21 46.9 20.9 V G96 – Mt. Lemmon Survey MPS 347938
2010 09 11.26657 23 24 40.93 -08 21 48.3 20.6 V G96 – Mt. Lemmon Survey MPS 347938
2010 09 11.27177 23 24 40.68 -08 21 49.8 20.4 V G96 – Mt. Lemmon Survey MPS 347938
2010 09 11.27703 23 24 40.35 -08 21 51.2 20.6 V G96 – Mt. Lemmon Survey MPS 347938
2010 10 10.16588 23 02 53.23 -09 53 52.6 20.1 V G96 – Mt. Lemmon Survey MPS 351156
2010 10 10.17269 23 02 52.98 -09 53 53.1 20.1 V G96 – Mt. Lemmon Survey MPS 351156
2010 10 10.17957 23 02 52.76 -09 53 53.6 20.0 V G96 – Mt. Lemmon Survey MPS 351156
2011 11 25.55195 05 38 16.462 +27 33 52.47 20.7 g F51 – Pan-STARRS 1, Haleakala MPS 403725
2011 11 25.56719 05 38 15.645 +27 33 53.87 20.7 g F51 – Pan-STARRS 1, Haleakala MPS 403725
2011 11 25.58264 05 38 14.822 +27 33 54.65 20.1 r F51 – Pan-STARRS 1, Haleakala MPS 403725
2011 11 25.59725 05 38 14.053 +27 33 55.89 20.2 r F51 – Pan-STARRS 1, Haleakala MPS 403725
2011 12 06.55130 05 27 45.010 +27 43 52.80 19.8 i F51 – Pan-STARRS 1, Haleakala MPS 404192
2011 12 06.56421 05 27 44.196 +27 43 53.11 19.6 i F51 – Pan-STARRS 1, Haleakala MPS 404192
2011 12 06.57806 05 27 43.309 +27 43 53.39 19.9 r F51 – Pan-STARRS 1, Haleakala MPS 404192
2011 12 06.58987 05 27 42.552 +27 43 53.63 19.7 r F51 – Pan-STARRS 1, Haleakala MPS 404192
2011 12 28.21123 05 05 16.08 +27 37 34.7 19.7 V G96 – Mt. Lemmon Survey MPS 405818
2011 12 28.21823 05 05 15.68 +27 37 34.7 20.2 V G96 – Mt. Lemmon Survey MPS 405818
2011 12 28.22521 05 05 15.25 +27 37 34.0 20.1 V G96 – Mt. Lemmon Survey MPS 405818
2011 12 28.23209 05 05 14.85 +27 37 33.5 20.1 V G96 – Mt. Lemmon Survey MPS 405818
2013 03 07.38744 13 36 09.78 -07 39 56.1 20.7 V 691 – Steward Observatory, Kitt Peak-Spacewatch MPS 461514
2013 03 07.40515 13 36 09.38 -07 39 55.1 20.7 V 691 – Steward Observatory, Kitt Peak-Spacewatch MPS 461514
2013 03 07.42291 13 36 08.97 -07 39 54.0 20.7 V 691 – Steward Observatory, Kitt Peak-Spacewatch MPS 461514
2013 03 15.38050 13 32 28.37 -07 26 43.4 20.4 V 691 – Steward Observatory, Kitt Peak-Spacewatch MPS 461514
2013 03 15.39837 13 32 27.72 -07 26 41.3 20.4 V 691 – Steward Observatory, Kitt Peak-Spacewatch MPS 461514
2013 03 15.41625 13 32 27.08 -07 26 39.0 20.4 V 691 – Steward Observatory, Kitt Peak-Spacewatch MPS 461514
2013 03 23.38081 13 27 16.15 -07 06 23.7 20.1 V 691 – Steward Observatory, Kitt Peak-Spacewatch MPS 461514
2013 03 23.39846 13 27 15.33 -07 06 20.7 20.3 V 691 – Steward Observatory, Kitt Peak-Spacewatch MPS 461514
2013 03 23.41613 13 27 14.53 -07 06 17.8 20.2 V 691 – Steward Observatory, Kitt Peak-Spacewatch MPS 461514
